Wind_Speed
31 31 34 36 37 37 34 30 26 25 26 29 32 32 32 32 27 25 27 24 24 28 28 26 26 23 23 25 25 25 26 26 24 23 22 20 19 17 17 18 16 14 15 15 17 19 19 20 18 18 20 21 19 19 19 19 19 18 16 14 13 13 13 12 11 10 11 12 12 12 12 14 12 9 8 9 11 12 10 7 10 12 8 7 13
32 32 33 35 36 35 33 31 28 26 27 29 32 32 33 34 31 29 28 25 26 30 27 25 26 25 24 24 24 26 27 25 24 24 23 20 20 19 19 19 18 17 17 18 20 22 22 21 19 19 22 22 20 18 17 17 18 19 18 15 12 12 13 14 12 11 11 13 13 13 15 14 9 8 10 11 11 9 7 7 9 9 7 7 10
33 33 33 34 35 34 34 32 29 28 28 29 31 33 34 35 34 33 30 25 27 31 27 25 26 26 25 25 25 27 27 25 25 26 22 20 20 20 20 21 19 18 20 21 22 22 23 22 20 22 24 23 21 19 17 17 18 16 15 14 13 12 12 13 12 11 13 15 14 12 14 13 9 8 9 9 9 9 7 7 8 9 9 8 7
36 36 36 36 35 35 36 35 31 29 30 30 31 33 35 36 36 35 31 28 29 30 27 26 28 29 28 28 28 29 29 26 28 27 22 20 21 20 21 24 22 21 22 23 22 21 23 22 22 24 25 22 22 22 20 20 18 14 14 13 13 13 12 12 14 16 16 14 11 10 11 11 9 8 8 8 9 9 6 6 8 8 9 9 7
36 39 38 37 37 36 36 36 34 31 31 32 33 34 36 36 37 36 32 30 29 28 27 28 30 31 31 29 29 30 29 28 29 27 22 21 23 22 23 25 25 23 23 23 21 21 23 22 23 26 25 22 22 22 23 22 18 16 16 14 12 15 16 16 19 20 16 10 8 10 10 8 7 7 8 8 8 8 7 6 8 8 8 10 9
37 40 40 39 38 37 37 37 36 34 33 33 33 35 37 40 40 38 34 32 29 28 29 29 29 32 32 30 31 30 29 30 29 24 21 23 23 22 24 27 23 19 20 22 21 22 23 22 24 26 24 22 23 23 23 22 20 19 18 14 14 18 19 17 17 17 13 9 9 10 10 9 8 7 8 8 8 8 7 7 8 9 9 9 9
39 40 40 40 39 38 39 39 39 38 35 32 33 36 38 41 41 37 35 35 32 30 30 29 30 31 30 30 33 32 29 30 29 25 23 23 24 25 27 26 21 17 19 22 22 23 24 23 24 26 24 23 24 24 24 23 21 21 19 18 18 18 16 15 13 12 11 11 11 10 10 10 10 8 8 10 10 8 7 6 7 8 8 8 10
38 39 40 41 40 39 40 40 40 40 35 29 30 35 37 39 40 38 37 37 34 32 30 31 32 31 29 31 33 33 32 30 29 28 26 25 26 28 28 26 24 21 22 22 23 24 25 24 25 26 24 24 25 25 25 23 22 21 21 21 20 17 14 14 12 11 11 11 11 10 9 9 9 8 9 11 9 6 5 7 6 7 8 9 10
35 37 39 41 42 42 42 42 41 41 37 30 30 34 37 38 40 42 43 39 36 34 31 32 35 32 30 33 33 33 34 31 28 29 29 30 31 29 28 28 26 23 23 23 23 24 25 25 27 26 25 25 26 26 25 23 22 22 22 20 18 16 15 13 12 12 12 12 11 10 10 9 9 9 9 9 6 4 6 8 8 7 8 10 10
33 35 37 40 41 42 42 42 41 41 37 31 30 32 35 38 38 41 44 40 36 34 33 34 35 33 33 35 32 33 35 32 30 33 33 34 33 30 30 29 23 20 23 24 24 25 26 26 27 27 26 27 27 27 25 24 22 22 21 19 17 18 17 14 13 13 12 12 11 10 10 10 9 9 9 8 7 7 8 8 8 7 8 9 10
35 35 36 37 39 40 40 40 40 39 36 32 30 32 35 38 39 41 43 40 36 34 35 36 37 35 35 35 32 32 37 37 37 39 37 35 33 31 31 27 20 19 24 25 24 27 27 27 29 29 28 28 28 26 25 23 22 21 20 19 19 19 18 16 15 13 12 12 11 10 10 9 9 9 8 8 8 8 7 6 6 7 8 9 9
38 37 35 35 37 39 38 37 38 39 38 35 32 34 37 38 39 42 45 43 38 35 36 38 37 35 35 35 35 38 42 44 44 41 37 33 31 31 30 26 22 22 25 25 25 27 28 28 30 30 28 29 27 26 25 24 23 22 21 20 20 20 20 19 17 15 14 11 9 10 10 8 9 9 8 7 8 7 6 6 7 7 8 8 10
39 36 34 35 36 37 36 37 38 40 40 37 33 34 38 39 39 43 45 44 40 36 36 38 37 35 35 35 38 43 45 46 45 40 35 33 32 31 29 27 26 25 25 25 26 27 29 30 31 30 29 29 28 27 26 24 23 23 21 20 20 20 21 21 20 19 17 13 10 9 9 9 8 8 9 10 10 8 6 6 6 7 8 9 11
38 36 35 35 36 35 36 37 38 39 39 38 35 35 37 37 38 42 44 44 41 36 36 39 38 37 35 34 39 45 46 45 43 39 36 35 33 32 29 27 27 27 26 25 26 27 29 31 32 31 29 29 29 28 26 24 24 23 22 21 20 21 22 21 22 21 18 16 13 9 9 10 9 8 11 14 13 10 7 7 8 9 10 11 10
37 36 35 35 36 36 37 37 37 38 38 37 37 37 36 35 37 41 43 44 42 39 39 40 38 37 35 33 39 46 45 43 42 39 37 36 34 32 29 25 24 26 27 26 26 28 29 31 32 32 30 29 29 28 26 25 24 23 22 21 20 21 22 22 22 22 19 18 17 13 11 14 13 12 14 15 13 11 9 10 11 11 10 10 11
37 36 35 36 36 36 38 38 37 38 38 38 38 36 35 36 38 41 43 43 41 41 42 40 38 39 35 32 40 47 43 41 42 39 38 38 35 33 29 23 21 24 28 28 26 28 30 31 32 31 30 29 29 27 26 25 24 23 22 21 20 21 22 22 22 22 21 21 21 19 17 18 16 14 14 14 12 12 11 9 9 8 9 11 11
36 36 35 36 37 37 38 38 38 39 38 39 38 35 35 38 40 41 43 42 41 43 42 39 38 40 35 30 38 46 42 39 42 41 39 38 37 35 31 25 24 27 29 27 26 28 30 32 32 31 31 30 28 27 26 25 25 24 22 20 21 22 23 23 22 21 21 21 21 21 20 18 16 14 13 14 13 13 11 9 7 7 9 10 10
34 35 35 36 36 37 38 38 39 41 40 40 39 36 36 39 41 43 45 44 43 42 40 36 37 39 34 29 36 45 42 39 41 42 40 39 38 37 33 27 27 30 29 27 27 28 30 31 31 30 31 31 28 26 26 26 25 23 21 21 22 23 22 22 21 20 21 20 20 20 19 18 16 15 14 14 14 14 12 10 8 7 9 10 10
33 34 35 35 35 36 37 38 38 40 41 41 40 38 39 40 43 47 47 44 43 40 37 36 35 36 33 28 34 43 41 38 41 42 41 40 39 38 36 32 32 32 29 27 28 27 28 31 30 29 30 31 29 26 26 26 24 23 22 22 24 23 21 21 20 20 20 20 20 20 19 18 17 16 15 15 15 14 13 11 10 9 10 10 10
33 34 34 33 32 34 36 37 37 38 39 39 38 39 41 42 43 46 45 42 41 39 37 34 30 29 28 26 33 43 41 38 41 42 40 41 40 39 39 37 35 33 29 28 27 26 28 31 31 29 30 31 29 26 26 25 23 23 23 23 23 22 21 20 20 19 19 19 19 19 18 18 17 17 16 16 16 15 13 12 11 10 10 11 10
32 32 32 31 31 33 35 36 38 37 36 37 40 42 43 42 43 45 44 42 41 40 37 32 28 28 28 25 31 42 43 39 41 42 40 41 41 41 41 39 35 33 31 28 28 29 30 31 32 32 32 31 29 26 25 24 23 22 22 23 22 21 20 20 20 20 19 17 18 19 18 18 17 16 16 16 16 15 14 13 12 11 10 11 11
29 29 30 31 31 33 34 34 36 37 36 38 42 43 42 42 42 43 43 41 41 41 38 34 28 28 28 24 26 36 42 41 41 42 41 40 42 43 43 39 35 34 32 31 31 31 30 30 32 32 30 29 28 26 24 22 22 23 23 23 22 22 21 17 16 18 18 16 16 16 16 15 14 14 14 13 13 14 14 14 14 13 12 11 11
29 28 29 30 31 33 34 34 35 38 39 40 40 39 39 42 43 42 42 42 43 43 40 36 30 28 29 26 22 28 37 41 41 42 41 41 42 43 42 39 36 35 34 34 33 30 28 31 32 29 27 27 27 26 24 22 22 24 25 24 23 23 21 16 13 15 16 15 15 15 13 13 12 12 13 13 12 13 13 14 14 14 13 12 12
28 30 30 31 32 34 35 36 38 40 42 42 39 37 38 41 41 41 43 44 44 44 42 39 35 33 33 30 24 23 32 40 41 40 41 41 41 43 42 40 38 36 34 33 31 28 29 31 31 27 25 24 25 26 24 23 23 24 25 24 23 22 21 19 17 16 15 14 15 15 14 13 13 13 13 13 12 12 13 13 14 13 13 13 14
27 30 30 31 33 35 36 37 38 39 41 42 39 38 40 41 38 39 42 42 42 45 45 42 39 38 36 33 29 27 31 39 42 41 40 39 40 42 43 41 40 38 34 30 29 29 29 29 28 24 21 21 24 26 25 23 23 24 24 24 22 21 22 21 18 16 14 14 14 15 14 14 14 13 13 12 12 12 12 12 13 14 15 15 15
29 31 32 32 35 36 36 37 37 36 39 40 38 37 39 39 39 41 40 36 36 42 44 42 40 38 33 30 29 30 33 40 44 42 39 37 38 42 44 43 41 38 34 31 29 28 27 27 25 22 19 21 25 26 24 23 23 24 24 24 22 21 22 21 17 14 14 14 14 14 14 13 13 13 13 13 13 13 13 13 13 14 14 14 14
30 31 31 30 32 35 35 36 36 36 37 38 37 36 35 35 39 43 41 36 37 41 43 42 39 35 29 26 26 29 35 42 44 43 41 39 38 41 45 46 43 39 35 32 29 27 27 27 23 18 17 20 23 23 22 22 23 24 25 25 23 22 21 20 18 15 14 14 13 13 12 12 12 12 13 14 14 14 13 13 13 13 13 12 13
31 31 28 25 28 31 33 34 35 35 36 35 34 34 35 37 40 43 43 41 42 44 45 44 39 32 28 27 28 31 37 42 43 43 44 44 42 42 46 48 45 40 36 32 28 28 29 27 22 19 19 22 23 23 23 23 23 24 25 25 25 24 23 20 19 18 16 14 13 13 13 12 12 13 13 13 13 13 13 13 13 13 12 11 12
27 27 25 24 27 28 30 32 34 33 32 31 31 32 35 37 39 42 43 42 42 44 46 46 41 35 31 31 33 35 38 38 37 37 40 44 45 45 47 48 46 41 37 33 31 31 31 27 24 23 25 26 26 26 25 25 25 25 25 25 25 25 24 23 22 21 18 16 16 16 14 13 13 13 13 13 13 13 12 12 13 12 11 11 13
22 22 21 23 25 26 28 31 32 32 31 30 32 34 35 35 36 38 40 40 40 41 41 40 38 36 34 34 36 38 36 32 29 30 34 39 43 45 47 47 46 42 38 35 33 32 31 30 28 28 29 29 29 28 27 27 26 26 26 26 26 24 23 23 22 20 19 18 18 16 14 14 14 13 13 13 13 13 13 13 13 12 11 12 12
19 18 18 19 21 25 27 29 30 33 34 33 34 35 35 34 35 37 38 38 37 36 35 35 34 33 32 32 34 37 36 31 26 26 30 33 38 43 46 46 46 44 40 36 34 33 33 33 33 33 33 32 30 29 29 28 28 26 25 25 26 25 23 22 21 20 20 20 20 17 15 14 14 14 13 13 13 12 12 13 12 12 11 12 12
15 14 14 16 19 24 28 30 30 31 31 32 34 35 35 35 37 37 37 36 36 35 34 35 34 32 30 29 28 31 34 33 28 27 29 31 35 41 44 45 45 44 40 36 35 35 35 36 36 35 35 33 31 31 30 29 28 26 23 22 23 25 25 23 21 20 19 19 19 19 18 17 15 14 14 13 13 13 12 12 11 11 11 12 12
12 12 14 17 20 21 23 26 29 31 30 30 33 35 36 37 38 38 37 37 37 36 36 36 35 32 30 28 24 23 26 27 27 27 29 30 34 40 43 43 45 44 41 38 37 37 36 36 37 36 35 33 31 30 30 28 25 23 22 21 21 23 23 23 22 21 20 18 18 18 20 19 18 16 15 14 14 13 14 14 13 12 12 12 12
9 10 12 15 17 15 15 17 21 25 27 28 30 32 34 36 36 36 37 37 37 37 36 35 34 33 32 30 26 23 23 23 23 24 26 28 32 38 43 44 46 45 41 39 40 39 37 37 38 36 33 30 28 27 27 27 24 21 20 21 20 20 20 20 21 21 20 19 18 18 19 19 18 18 18 17 15 14 16 17 15 13 13 13 12
12 12 12 12 11 10 12 15 16 17 19 21 25 28 31 33 34 35 36 37 37 37 36 35 33 31 31 30 28 27 27 25 22 21 23 26 30 39 47 49 49 47 42 40 41 41 38 37 38 36 31 27 25 24 24 24 23 21 20 19 19 19 19 20 20 20 19 19 20 20 19 18 18 19 18 17 16 16 17 16 15 14 14 13 12
15 14 14 14 13 11 12 14 15 15 16 17 19 22 24 26 28 30 32 33 33 34 35 35 33 30 29 30 31 31 29 26 23 23 24 25 30 39 48 52 52 50 47 45 44 42 38 35 35 33 29 25 23 22 21 21 21 21 20 20 19 19 19 20 19 18 19 20 20 20 20 20 20 20 18 17 18 18 17 14 13 13 14 13 12
10 12 12 13 13 13 14 14 13 13 15 17 18 21 23 25 26 27 29 31 33 34 36 36 34 33 33 35 34 32 28 24 24 25 26 27 29 36 44 51 53 52 50 47 46 44 40 36 33 30 27 24 22 21 20 20 19 19 20 20 20 20 20 20 19 18 20 21 21 21 21 21 21 21 20 21 21 18 15 14 14 14 14 14 14
9 11 11 11 12 13 16 17 16 14 13 15 18 20 23 26 27 28 29 32 34 36 36 33 32 34 38 39 37 32 28 25 25 26 27 29 29 33 41 49 53 52 50 49 47 44 40 37 35 33 30 26 22 20 18 18 18 19 20 20 19 20 21 21 20 20 20 21 22 22 21 22 24 24 24 24 23 19 15 14 15 14 14 15 15
8 9 10 10 11 12 14 15 15 14 14 14 16 19 22 24 26 27 29 30 32 34 33 30 29 34 39 39 37 35 32 30 30 31 31 31 31 33 39 46 50 52 51 49 46 42 37 34 36 38 36 31 24 20 18 18 19 19 20 20 20 21 22 22 21 21 21 21 22 21 22 24 27 26 25 24 22 20 18 18 17 16 15 14 13
8 8 8 8 8 9 10 11 11 12 13 13 14 16 18 21 24 26 27 29 30 31 30 28 30 34 38 38 37 37 36 35 35 35 34 33 32 33 38 44 49 51 50 46 42 39 37 35 35 37 35 30 25 21 20 21 20 18 18 20 21 22 22 21 21 21 21 21 22 23 25 26 26 23 22 21 20 18 18 19 19 19 18 16 16
6 7 8 8 8 8 9 9 9 10 12 12 13 13 15 17 20 22 24 26 28 28 28 29 31 34 35 35 36 37 38 38 37 36 35 34 34 36 39 45 49 49 47 44 41 39 39 37 35 31 28 25 23 21 22 23 22 19 18 20 21 21 21 21 21 22 22 23 25 28 28 26 23 20 20 20 19 18 17 17 17 17 15 15 16
6 5 4 5 6 7 7 7 7 8 9 10 11 12 13 14 17 20 22 24 25 26 27 30 32 34 34 34 36 37 38 38 38 37 37 37 38 39 41 43 44 44 43 41 39 38 37 34 31 27 25 24 24 23 23 24 23 21 21 23 23 22 22 22 22 23 24 25 28 30 28 24 21 20 20 19 18 18 17 16 16 15 13 13 14
10 9 7 6 4 2 3 4 4 4 6 8 9 10 11 13 16 19 21 22 24 25 27 30 32 32 33 34 36 37 37 37 38 39 39 37 36 37 37 37 39 40 39 35 33 32 32 31 30 29 28 26 25 24 24 25 23 20 21 23 22 23 24 22 22 24 26 27 29 29 26 23 21 20 19 19 19 18 18 17 17 16 15 14 14
9 11 11 11 10 8 6 3 1 2 3 5 7 9 11 13 16 18 21 22 24 26 28 30 31 32 32 34 35 35 35 36 37 37 36 34 33 33 33 33 34 35 34 33 33 33 32 32 31 29 26 24 23 20 20 22 22 20 21 21 22 24 26 25 24 25 27 27 27 27 26 25 24 22 21 21 22 22 21 20 19 17 16 15 15
6 9 11 12 13 14 12 10 9 7 4 2 3 5 7 10 13 16 19 21 23 25 28 30 30 30 32 35 35 34 34 36 36 35 34 34 35 36 35 34 34 35 35 34 32 30 28 27 26 23 23 24 23 17 15 17 19 19 20 21 22 24 25 24 23 24 26 25 23 23 23 24 24 23 23 24 25 25 25 24 23 21 19 18 17
8 8 8 11 14 15 14 13 13 11 8 5 3 0 1 4 7 12 15 18 20 23 25 27 27 28 32 35 35 33 33 34 35 35 36 35 36 35 34 33 32 30 27 25 24 22 21 22 22 21 22 23 21 17 18 20 20 19 18 19 20 21 20 18 17 18 21 22 21 19 20 21 22 21 21 23 24 24 24 24 23 21 20 20 20
10 9 8 9 11 12 13 13 13 13 11 9 7 5 5 5 3 5 9 11 14 18 21 22 22 26 31 34 33 32 31 29 29 30 30 28 27 28 28 27 25 23 21 21 22 23 22 23 23 24 24 21 18 17 18 19 18 19 18 18 17 16 15 13 13 13 15 18 18 16 17 18 19 19 18 19 20 21 21 20 20 19 18 19 20
9 9 10 10 10 11 11 11 11 12 11 11 11 10 9 9 8 6 6 6 7 11 14 16 18 22 27 29 29 27 26 24 23 23 22 22 22 24 24 24 23 22 21 22 22 21 21 22 24 25 25 23 21 21 21 19 17 17 16 15 14 14 12 11 10 10 12 14 14 14 16 17 16 15 16 17 17 18 19 18 17 17 18 20 20
11 9 11 12 11 12 11 10 10 11 11 11 12 12 10 9 9 9 8 8 7 7 8 11 14 18 21 22 22 22 23 22 21 21 21 22 22 22 22 22 21 20 20 20 20 18 19 21 22 22 21 20 21 23 23 20 18 17 15 13 13 14 13 10 9 11 12 12 11 11 14 16 16 15 14 14 14 15 17 18 17 16 17 19 20
12 10 10 10 10 10 11 10 10 11 11 11 11 12 11 10 10 9 8 7 6 6 6 8 10 12 14 15 17 18 19 20 20 21 21 22 22 21 20 19 19 18 18 18 17 16 16 18 18 17 18 19 20 20 20 19 18 17 16 14 15 15 13 10 10 13 14 13 11 10 12 15 17 17 16 15 14 15 16 18 18 17 16 17 18
9 9 9 9 9 10 10 10 10 10 10 10 12 12 12 11 11 10 9 8 7 6 6 6 6 8 9 11 13 14 15 16 17 17 17 18 18 17 17 17 17 17 17 16 15 15 15 16 16 16 17 18 17 18 17 17 16 16 17 17 17 16 13 10 10 13 15 15 13 13 13 13 16 17 17 17 16 15 15 16 17 17 16 16 17
Wind_Direction
234 232 226 221 220 219 220 226 222 209 209 215 216 215 215 215 213 209 207 205 201 200 199 199 201 202 202 202 205 206 208 212 211 208 209 213 213 211 214 217 216 216 219 218 222 226 224 222 217 210 216 222 222 225 228 227 228 224 217 216 220 222 223 222 229 221 202 207 207 207 237 256 256 251 232 234 265 295 313 296 284 308 322 293 298
231 231 227 222 222 223 225 226 218 208 210 215 217 217 215 215 213 210 209 205 201 202 200 196 198 200 200 199 201 205 208 210 211 209 209 211 210 210 214 215 214 216 218 221 230 236 233 227 221 218 224 228 224 222 224 225 229 228 219 214 215 219 221 218 222 222 213 222 232 237 253 261 249 237 234 234 249 270 283 273 274 292 293 275 286
230 231 228 223 222 225 226 221 214 210 211 212 216 216 214 214 213 211 210 207 203 204 202 198 197 198 200 198 199 207 211 211 214 214 211 210 210 210 213 214 216 218 221 231 238 237 235 228 216 220 231 232 224 220 219 220 224 223 215 212 211 215 219 216 219 221 215 229 244 239 243 249 228 221 244 251 258 267 266 258 260 269 276 281 279
224 227 228 226 223 222 222 218 213 210 209 211 214 214 213 215 215 213 211 206 205 204 202 200 198 199 200 198 198 208 211 210 216 219 212 208 209 211 217 222 228 231 230 236 238 234 235 228 216 223 234 234 228 224 219 220 219 209 204 207 206 206 208 204 208 216 220 230 236 213 220 244 233 215 233 247 266 283 278 250 254 265 272 277 272
219 224 226 225 223 220 220 221 220 216 212 211 212 212 212 213 214 214 210 206 206 204 201 201 200 200 201 198 199 206 208 209 217 219 211 209 211 212 219 226 232 236 235 236 233 230 234 229 219 227 235 232 228 224 222 223 215 204 205 204 200 206 210 211 216 220 221 221 212 200 208 232 230 218 229 241 258 278 284 268 266 273 268 266 271
218 222 223 222 222 221 224 226 225 223 218 211 210 211 211 211 212 213 209 206 206 203 202 202 201 201 202 201 201 204 206 209 215 215 208 209 211 212 220 226 228 229 232 233 229 227 231 228 222 230 234 230 225 221 222 221 212 211 213 199 201 219 223 224 227 224 219 211 201 201 205 212 220 224 230 239 245 247 253 262 270 275 270 269 277
217 221 223 223 223 223 226 229 229 227 222 212 208 210 211 212 212 211 209 208 207 205 203 203 203 202 203 203 203 203 204 206 210 211 209 208 210 216 224 226 223 222 228 230 228 227 229 226 224 230 231 227 224 221 221 220 213 216 216 204 213 230 227 220 221 212 205 204 200 204 211 213 221 225 228 242 254 255 250 255 268 271 267 271 279
215 220 223 223 223 224 227 229 230 227 221 209 206 209 211 212 211 210 210 208 207 206 204 203 204 203 204 206 204 203 203 204 207 209 208 208 214 222 227 226 225 228 231 229 225 227 229 224 224 229 229 224 223 221 221 222 218 218 220 219 224 230 220 210 206 198 199 203 203 208 212 214 218 219 226 245 265 279 253 244 258 270 271 277 284
214 218 223 224 224 226 227 228 227 224 219 209 205 207 210 211 211 212 213 210 207 207 205 204 205 204 205 206 204 203 204 203 204 205 207 214 220 223 226 227 227 229 232 229 225 226 227 224 224 228 226 223 222 223 224 223 221 220 224 228 227 221 211 200 195 198 202 204 206 209 208 211 218 218 224 240 256 253 238 249 270 280 281 286 290
214 213 220 224 226 226 227 226 223 221 218 208 203 206 208 208 209 212 214 212 208 206 204 205 206 205 206 206 202 203 206 204 205 209 216 223 224 222 225 228 222 219 228 229 225 225 226 223 224 226 225 224 224 225 226 225 223 224 227 227 221 215 210 198 194 201 203 204 211 211 209 214 219 220 224 231 236 237 243 259 275 281 287 293 295
216 212 212 218 224 225 222 219 217 216 212 204 202 205 206 207 209 212 213 211 207 205 203 204 206 205 207 205 202 206 212 212 214 219 224 227 225 223 227 228 216 213 227 230 226 226 225 221 225 227 225 226 227 227 227 226 224 226 228 225 219 214 208 199 197 202 203 208 211 210 213 221 220 219 226 233 239 249 258 261 268 279 286 292 299
217 214 209 209 216 218 212 208 208 209 207 202 201 202 204 208 211 213 214 211 206 204 203 203 204 205 206 206 208 214 218 220 221 223 224 224 224 225 228 230 226 225 231 231 228 228 225 221 225 229 226 227 228 226 225 224 223 225 227 225 222 218 212 203 199 199 201 205 210 213 217 221 222 221 223 228 233 243 257 259 266 276 280 288 298
216 214 208 205 210 209 202 201 205 208 208 204 199 199 203 206 209 211 212 210 206 205 205 203 202 204 205 208 215 220 223 224 224 222 221 221 221 223 227 232 233 234 235 232 229 228 224 221 226 229 227 227 227 226 225 224 224 224 224 224 223 222 219 212 205 204 206 204 205 216 219 217 221 227 225 228 234 237 246 263 274 274 277 284 287
214 211 208 205 206 204 199 199 202 204 206 201 195 197 201 204 208 211 212 210 206 204 206 203 201 203 206 209 216 222 226 227 223 220 219 220 219 221 227 232 233 235 236 234 229 226 223 222 227 230 229 227 227 226 225 224 224 224 223 223 223 222 222 219 215 217 221 216 207 210 221 218 211 215 231 244 253 250 240 247 256 260 269 281 294
212 211 207 203 203 201 198 198 199 200 200 197 194 197 200 201 207 211 212 211 207 206 208 205 200 202 206 208 215 223 228 228 222 218 218 219 217 219 225 228 228 230 233 232 228 225 223 223 227 231 232 230 228 227 226 224 223 224 222 223 225 222 220 221 220 222 225 222 214 208 214 223 221 223 240 258 268 262 250 250 259 268 284 301 316
212 210 207 202 201 199 198 198 198 197 198 196 194 197 199 201 206 209 209 207 207 210 210 206 202 204 205 208 216 224 229 228 221 216 217 218 216 218 219 218 216 221 230 232 227 223 224 225 227 231 233 232 230 228 227 225 224 223 221 222 225 224 222 223 224 224 222 221 222 220 223 232 238 240 250 262 268 268 266 266 275 290 298 301 305
214 210 207 204 201 199 198 197 196 196 196 196 196 196 199 202 206 207 204 202 206 210 209 205 204 206 205 208 216 223 228 227 220 215 216 217 215 215 214 211 215 224 230 230 224 221 224 226 227 230 233 233 231 228 226 227 224 221 221 224 225 224 224 223 223 225 227 227 229 232 235 241 248 250 255 262 266 269 269 266 271 285 288 288 293
217 213 210 207 202 200 199 198 198 198 196 196 197 197 199 204 206 205 202 202 206 208 206 204 205 206 206 208 215 222 226 225 219 214 215 217 216 214 211 208 216 225 227 226 225 223 225 228 227 227 231 234 232 227 225 226 225 223 223 224 222 220 223 226 225 225 229 231 232 235 240 245 250 251 254 261 266 267 267 261 253 258 274 285 291
217 215 213 208 203 201 201 200 200 199 196 198 200 200 201 206 208 204 202 203 206 205 203 204 205 206 208 210 215 221 226 225 219 214 215 217 216 214 211 210 217 223 224 225 224 221 224 230 226 222 227 234 233 228 225 225 225 227 227 223 219 218 222 229 230 228 230 233 235 238 243 246 250 253 256 261 264 267 272 269 259 254 264 276 285
214 217 217 211 205 204 203 202 202 200 197 198 200 202 205 208 207 204 201 202 206 205 202 202 204 205 209 211 214 219 224 224 218 214 215 217 215 213 211 211 215 220 223 224 222 217 221 229 227 221 224 232 233 229 226 224 223 226 225 220 218 220 223 229 234 233 233 236 238 241 244 246 249 253 256 261 265 267 270 269 266 263 261 265 276
213 214 216 213 210 209 209 207 206 203 201 200 201 205 209 209 204 202 200 201 204 204 201 200 201 205 208 211 213 217 221 222 218 215 215 217 215 213 213 213 217 222 222 220 220 220 220 226 228 224 223 230 233 230 225 222 221 223 222 218 217 220 222 225 231 235 236 238 240 242 245 249 253 257 260 266 270 272 275 276 274 274 267 260 266
215 213 213 212 212 212 211 210 207 204 202 201 202 206 209 206 201 200 200 202 205 205 201 198 198 201 205 208 211 214 218 220 218 217 218 219 216 214 214 216 220 222 219 217 222 224 220 224 230 228 224 230 234 231 225 222 221 222 222 219 216 220 221 218 225 235 237 235 238 241 244 248 252 254 254 256 261 267 276 282 282 286 284 268 260
215 212 211 210 210 210 209 208 206 205 204 203 203 205 205 202 200 200 200 201 204 206 203 199 197 198 201 204 206 211 216 218 217 217 219 219 217 215 216 219 220 221 220 221 223 221 218 225 233 231 226 229 231 228 225 223 221 222 224 222 220 222 219 206 206 227 232 227 229 232 233 235 237 240 241 242 244 249 254 260 266 271 275 270 265
214 211 210 208 208 208 207 206 207 208 209 207 205 205 202 198 198 201 201 201 204 206 204 201 200 200 201 202 200 204 213 217 215 214 216 217 215 215 216 218 220 220 219 221 223 222 221 229 235 232 226 225 226 226 226 225 224 224 225 225 223 222 217 207 208 221 226 224 227 227 226 229 231 235 240 241 243 244 243 247 249 247 251 260 266
219 211 209 207 206 206 205 206 208 208 208 208 206 204 200 197 200 204 202 200 203 206 205 204 206 207 207 207 206 205 213 217 214 212 215 217 215 213 213 215 220 219 215 217 223 224 225 230 234 232 227 223 222 223 225 224 224 224 224 225 224 220 216 212 213 221 223 222 224 225 226 230 233 235 238 238 238 240 241 242 244 245 255 268 273
228 215 210 209 208 206 204 206 207 205 205 206 205 201 197 199 205 205 201 199 203 206 205 204 207 209 208 206 206 206 214 220 217 213 216 218 215 212 209 212 218 217 214 216 221 220 222 228 231 229 225 221 220 221 223 223 221 220 222 224 220 215 215 213 210 213 219 219 222 226 228 230 233 236 237 236 236 239 241 243 248 254 262 272 275
234 220 211 208 207 205 203 204 203 201 202 203 201 200 201 205 207 204 200 202 205 205 204 203 204 205 201 198 202 208 216 223 221 217 216 216 214 212 209 210 212 212 212 216 219 219 221 224 224 222 220 218 217 220 222 220 218 219 220 220 216 212 213 214 211 212 218 222 225 228 228 230 233 234 235 236 237 239 242 245 250 255 260 266 272
234 223 213 206 203 202 201 201 199 198 199 199 199 203 206 207 207 206 206 208 208 206 206 205 204 202 198 198 203 209 217 225 226 221 219 218 215 212 210 209 210 211 212 213 214 216 218 216 213 209 208 207 209 211 213 214 216 219 220 219 218 215 212 212 214 215 218 221 224 225 223 226 231 232 234 236 238 241 244 245 248 253 258 265 272
234 223 214 207 203 202 200 201 200 197 196 199 203 209 211 212 212 211 212 214 213 210 209 208 207 207 209 212 216 218 221 228 230 225 223 223 220 216 214 212 210 210 211 210 211 213 212 207 203 202 202 204 205 206 206 209 214 218 218 217 218 219 218 217 219 220 220 221 224 225 225 227 230 231 232 235 238 242 244 243 246 251 257 266 272
237 225 218 212 208 206 204 203 202 199 199 203 206 207 209 214 217 215 213 218 221 220 219 220 219 220 221 222 227 231 232 236 236 230 226 225 223 221 219 216 211 208 208 208 210 212 208 200 199 202 204 205 205 205 207 210 211 214 217 217 216 217 219 221 223 224 224 224 226 227 226 226 227 228 231 237 241 243 242 241 244 249 256 264 270
242 230 224 220 215 212 207 203 202 202 203 203 203 202 204 209 214 216 216 219 223 224 226 229 230 232 232 233 238 242 240 238 240 238 230 224 221 219 220 218 212 207 206 206 206 208 206 200 199 204 206 207 209 209 210 212 212 212 215 219 220 218 217 219 221 222 224 227 229 229 224 222 226 228 231 237 239 239 241 242 241 245 253 260 266
245 239 236 230 223 219 213 205 200 200 202 203 204 207 209 209 211 215 219 222 225 227 228 228 228 230 234 238 245 247 241 237 240 240 233 228 223 218 218 218 213 206 204 204 205 206 205 201 201 204 206 209 212 213 212 212 214 213 210 213 222 223 220 219 219 218 220 226 230 229 225 221 222 226 230 233 234 236 241 241 238 244 255 262 268
245 245 243 234 227 223 214 204 198 199 203 207 208 210 213 213 214 216 219 221 224 227 230 231 231 231 233 235 239 244 242 241 245 242 234 230 226 218 215 215 211 204 200 202 204 205 205 203 202 204 208 210 213 215 213 211 211 212 209 209 216 221 220 220 219 217 219 222 224 227 228 225 220 220 224 228 229 234 237 235 235 246 258 263 267
236 237 239 235 231 228 222 212 203 201 205 209 209 210 214 217 219 221 221 222 222 223 225 228 230 232 235 234 235 238 238 238 242 240 231 227 224 216 211 209 205 202 202 204 206 208 207 203 202 204 207 209 208 210 212 210 206 207 210 211 213 216 217 217 217 217 220 221 219 222 228 228 223 221 225 228 229 231 234 236 240 250 256 258 263
229 235 239 237 234 237 236 228 218 211 210 210 209 211 215 218 220 223 224 226 226 225 224 224 224 228 232 232 233 236 234 231 232 233 230 227 220 212 207 202 198 198 201 204 207 209 207 203 202 203 203 202 200 201 206 208 205 205 209 211 213 214 214 214 217 219 222 225 223 221 223 224 222 221 225 229 227 228 235 241 246 248 249 251 258
227 237 244 241 237 243 246 239 230 226 224 221 221 222 223 224 225 226 227 229 230 231 231 228 225 226 229 231 233 234 231 224 220 221 223 225 221 214 207 201 197 196 198 201 204 207 205 199 198 200 199 196 195 196 198 202 203 205 209 211 212 214 214 215 219 223 225 226 226 224 222 222 222 221 223 225 224 229 239 246 243 242 245 247 253
236 242 251 252 250 254 260 260 253 243 237 235 235 234 232 232 232 232 233 234 236 237 235 229 222 221 224 226 229 231 226 217 213 214 215 219 223 220 214 206 201 199 200 201 203 206 203 198 196 197 194 191 191 194 199 203 204 208 214 217 216 217 218 218 220 225 226 225 225 226 225 223 222 221 222 226 230 234 240 241 237 237 241 242 243
260 253 252 253 252 252 256 260 260 256 248 243 242 240 238 237 237 236 237 238 237 236 233 227 222 223 224 224 224 223 218 211 208 210 212 215 218 219 215 209 204 202 203 204 204 205 204 202 201 201 197 194 195 199 205 207 208 211 218 221 219 220 221 220 220 224 225 224 225 227 225 222 223 227 231 236 240 239 235 232 233 237 241 245 247
268 260 253 248 245 245 249 252 253 252 250 247 246 244 243 242 241 239 238 238 236 234 231 228 226 225 224 222 219 216 211 205 202 202 205 208 210 211 211 209 207 207 207 206 204 202 201 202 206 209 207 205 205 205 206 210 212 214 218 220 221 222 223 223 222 221 221 223 224 222 220 223 230 237 241 241 242 239 233 229 229 233 238 242 244
274 267 258 251 247 248 250 248 245 245 245 245 246 247 246 246 245 243 241 239 237 233 230 229 228 226 224 222 219 215 211 205 201 200 199 200 201 203 206 207 207 208 208 206 203 202 202 204 211 215 212 209 207 205 206 212 215 216 218 221 222 224 225 224 222 219 219 221 220 217 220 230 238 240 236 233 232 232 232 233 237 244 248 246 240
306 289 277 265 257 253 252 250 246 244 244 245 246 248 249 250 249 247 245 243 241 237 232 228 226 228 229 226 220 216 212 207 202 200 198 196 194 196 201 205 206 207 208 205 204 206 207 208 213 214 208 203 204 207 211 214 213 214 223 227 225 225 225 223 220 218 217 219 223 225 230 238 239 230 224 224 225 225 228 232 238 246 254 254 245
15 351 322 294 276 264 257 254 254 251 248 245 245 246 248 251 251 249 245 242 240 238 233 226 226 230 231 224 217 214 210 205 200 197 197 198 195 194 198 202 203 206 207 205 205 210 211 209 209 208 201 198 198 199 207 214 211 209 217 222 221 222 223 220 220 221 220 221 229 235 238 235 229 223 222 223 222 222 225 228 230 234 241 245 243
54 52 55 56 39 340 288 270 264 260 255 252 250 249 248 247 245 243 241 240 238 235 229 225 226 229 226 218 213 210 205 200 197 195 195 197 196 195 197 199 200 203 205 203 203 207 207 203 204 206 205 208 209 206 210 219 219 211 213 218 217 218 220 219 221 226 227 228 234 241 242 235 225 221 221 220 219 221 224 226 229 234 237 235 233
67 64 64 66 65 62 55 44 19 325 296 276 265 259 254 245 239 235 233 232 229 226 222 221 224 226 220 210 204 200 198 198 198 197 195 193 192 191 192 193 195 197 196 193 196 202 204 205 209 209 208 219 231 228 220 221 219 212 211 213 213 217 224 228 229 233 238 241 241 244 245 241 232 223 220 220 223 226 229 231 234 237 236 232 230
68 69 68 67 67 67 67 67 66 58 36 346 287 267 258 248 240 236 232 227 223 220 218 219 221 220 212 201 192 190 193 196 197 196 194 190 187 185 185 187 192 195 196 198 205 211 213 215 218 215 210 218 227 224 208 206 211 211 210 213 217 226 237 243 243 243 246 250 249 245 244 245 241 235 230 230 233 237 240 243 245 245 240 232 227
55 61 69 74 75 72 71 71 72 71 67 62 62 68 235 236 237 236 231 227 224 219 216 215 215 210 199 190 186 188 193 194 194 194 194 190 188 188 189 192 197 200 203 206 209 211 213 214 214 210 210 214 216 207 197 200 206 206 206 212 225 239 249 253 251 245 244 247 248 245 241 243 248 247 242 238 238 241 245 248 247 245 242 235 227
63 63 62 69 75 76 74 75 78 80 79 77 78 84 96 107 143 206 216 217 219 218 215 213 209 199 190 186 186 189 192 191 193 196 196 194 194 196 198 199 200 200 199 200 200 200 203 204 202 200 202 201 195 191 194 197 200 203 208 217 230 244 252 253 250 245 242 243 245 242 235 239 248 253 250 243 235 232 238 247 246 239 235 233 230
60 73 74 73 73 70 66 65 72 79 82 84 86 87 91 99 107 122 142 161 187 203 203 198 193 190 189 189 190 192 191 191 193 195 193 193 198 202 201 199 197 194 194 199 202 201 201 203 205 207 208 205 200 199 199 196 195 203 214 224 231 237 242 245 244 245 248 248 246 238 231 231 235 240 246 248 238 225 225 236 244 241 232 229 228
41 58 77 82 82 76 67 60 64 71 73 76 81 84 86 91 96 99 105 114 124 142 156 160 166 176 186 192 195 196 196 196 196 195 191 191 195 198 196 194 193 192 195 202 206 204 205 211 216 217 217 217 217 218 218 219 220 222 225 228 227 229 235 234 223 226 241 252 253 242 232 227 223 221 228 241 244 234 224 223 231 237 233 229 228
52 51 61 71 80 86 84 77 73 71 66 65 72 76 76 77 81 83 90 100 106 113 126 138 150 164 177 186 191 195 198 199 198 198 198 197 198 196 191 190 195 200 204 209 213 213 215 222 226 224 221 221 224 228 233 238 239 235 229 223 223 231 242 242 225 223 235 249 257 254 243 233 228 224 221 222 234 242 238 228 224 226 226 225 226
82 74 73 75 76 78 75 70 69 70 68 67 71 72 69 69 72 74 75 78 85 97 112 125 139 152 164 173 181 189 195 200 202 203 203 204 204 198 191 193 201 207 211 217 223 226 228 230 231 230 229 228 229 233 237 239 235 228 222 221 226 237 247 249 237 234 241 247 250 251 250 245 240 238 234 228 230 241 248 242 231 225 223 222 222
Height
1450 1453 1455 1458 1461 1464 1466 1467 1471 1475 1478 1481 1484 1486 1488 1491 1491 1492 1492 1494 1495 1497 1499 1500 1503 1505 1506 1508 1511 1514 1515 1516 1517 1519 1520 1521 1522 1523 1525 1526 1527 1527 1529 1529 1529 1529 1530 1531 1531 1532 1532 1532 1533 1533 1534 1535 1536 1537 1539 1540 1541 1542 1542 1543 1545 1544 1543 1544 1545 1546 1546 1546 1546 1546 1547 1546 1544 1543 1543 1542 1542 1540 1540 1540 1538
1446 1448 1451 1454 1456 1459 1463 1465 1467 1471 1474 1477 1479 1482 1484 1487 1488 1489 1490 1491 1493 1495 1495 1496 1499 1501 1503 1505 1508 1510 1511 1513 1515 1516 1517 1518 1519 1521 1523 1524 1524 1525 1526 1526 1526 1526 1527 1528 1529 1529 1529 1529 1530 1531 1532 1533 1534 1534 1536 1538 1539 1540 1540 1541 1543 1543 1541 1541 1543 1543 1544 1545 1545 1545 1545 1545 1544 1543 1542 1542 1541 1540 1540 1540 1538
1442 1444 1446 1449 1452 1455 1459 1461 1464 1466 1470 1473 1475 1477 1480 1482 1484 1485 1487 1489 1490 1492 1492 1493 1495 1497 1499 1502 1504 1506 1508 1510 1512 1512 1514 1515 1517 1518 1520 1521 1522 1523 1523 1523 1523 1524 1524 1525 1527 1526 1526 1527 1528 1529 1530 1531 1532 1533 1534 1536 1537 1538 1538 1539 1541 1541 1538 1538 1540 1541 1541 1543 1544 1544 1544 1543 1542 1542 1542 1542 1541 1540 1539 1538 1538
1438 1440 1442 1444 1447 1451 1454 1457 1459 1461 1465 1468 1470 1473 1476 1478 1480 1481 1483 1486 1487 1488 1490 1491 1493 1494 1496 1498 1501 1502 1504 1507 1508 1509 1511 1513 1515 1516 1516 1517 1519 1519 1520 1520 1521 1522 1522 1523 1524 1523 1523 1525 1526 1527 1528 1528 1530 1531 1533 1534 1535 1536 1537 1537 1538 1538 1536 1537 1539 1540 1540 1540 1541 1543 1543 1542 1541 1540 1540 1540 1540 1539 1538 1537 1537
1435 1435 1438 1440 1443 1446 1448 1451 1454 1457 1459 1463 1466 1469 1471 1474 1476 1477 1480 1482 1483 1485 1487 1488 1489 1491 1493 1495 1497 1499 1500 1503 1505 1507 1509 1510 1512 1513 1513 1514 1516 1517 1518 1518 1519 1520 1520 1521 1522 1521 1521 1523 1524 1525 1525 1526 1528 1530 1530 1532 1533 1533 1534 1535 1535 1535 1536 1538 1539 1540 1539 1539 1540 1541 1542 1542 1541 1540 1539 1538 1538 1538 1538 1537 1536
1433 1431 1433 1436 1438 1440 1442 1445 1449 1452 1454 1457 1461 1464 1467 1470 1472 1473 1476 1478 1479 1481 1483 1484 1485 1487 1489 1492 1494 1496 1497 1499 1502 1504 1506 1508 1509 1510 1510 1512 1514 1515 1515 1516 1517 1517 1518 1519 1519 1519 1520 1521 1521 1522 1523 1524 1527 1527 1528 1531 1531 1531 1531 1533 1534 1535 1536 1538 1538 1538 1538 1539 1539 1539 1540 1540 1539 1539 1539 1538 1537 1537 1536 1536 1535
1429 1427 1428 1431 1433 1435 1438 1440 1444 1447 1449 1453 1457 1460 1462 1465 1467 1469 1472 1473 1475 1477 1479 1480 1482 1484 1487 1489 1491 1493 1494 1496 1499 1501 1503 1505 1506 1506 1507 1509 1511 1512 1512 1513 1514 1515 1515 1516 1517 1516 1517 1518 1519 1520 1521 1522 1524 1525 1527 1528 1528 1529 1530 1532 1533 1534 1535 1536 1537 1537 1537 1537 1538 1538 1539 1538 1537 1537 1537 1537 1537 1536 1536 1535 1534
1423 1422 1423 1426 1428 1431 1433 1436 1439 1442 1445 1449 1453 1456 1458 1461 1463 1465 1468 1469 1471 1473 1475 1477 1478 1481 1484 1486 1488 1490 1491 1492 1495 1498 1500 1501 1501 1503 1504 1507 1508 1509 1509 1510 1511 1512 1512 1514 1514 1514 1515 1516 1517 1518 1518 1520 1522 1523 1524 1526 1526 1528 1530 1531 1532 1533 1534 1535 1535 1536 1536 1536 1536 1537 1537 1536 1535 1536 1535 1535 1535 1535 1535 1534 1533
1418 1416 1418 1420 1423 1426 1429 1432 1435 1437 1441 1444 1448 1451 1454 1456 1459 1461 1463 1465 1467 1469 1472 1473 1475 1478 1481 1483 1485 1486 1486 1487 1490 1493 1495 1496 1497 1500 1502 1504 1505 1506 1507 1508 1508 1509 1510 1511 1511 1511 1512 1514 1514 1515 1516 1518 1520 1521 1522 1523 1525 1527 1528 1530 1531 1532 1533 1534 1534 1535 1535 1535 1535 1535 1535 1535 1535 1535 1534 1533 1533 1533 1533 1533 1532
1414 1412 1413 1415 1419 1422 1424 1427 1430 1432 1436 1439 1443 1446 1449 1453 1455 1456 1458 1461 1464 1466 1468 1470 1471 1474 1477 1479 1480 1481 1481 1483 1485 1487 1489 1492 1494 1497 1498 1500 1503 1504 1504 1505 1506 1506 1507 1508 1508 1509 1510 1511 1512 1513 1514 1516 1517 1518 1519 1521 1523 1525 1526 1528 1529 1531 1532 1532 1533 1533 1534 1534 1534 1534 1534 1534 1534 1534 1533 1532 1532 1532 1532 1531 1530
1410 1409 1409 1411 1415 1418 1420 1422 1425 1427 1431 1434 1438 1441 1444 1448 1450 1452 1454 1457 1460 1463 1465 1466 1467 1470 1473 1475 1476 1475 1476 1477 1479 1482 1486 1489 1492 1493 1495 1498 1500 1501 1501 1502 1503 1504 1505 1506 1505 1506 1507 1508 1509 1511 1513 1514 1515 1516 1518 1519 1520 1522 1524 1526 1527 1529 1530 1531 1532 1532 1532 1533 1533 1533 1533 1533 1533 1532 1531 1531 1531 1531 1531 1530 1529
1406 1404 1405 1408 1410 1413 1415 1417 1420 1423 1426 1429 1433 1437 1440 1443 1445 1447 1449 1452 1456 1458 1460 1462 1463 1466 1470 1471 1470 1470 1471 1472 1475 1479 1483 1487 1489 1490 1492 1495 1497 1498 1498 1499 1500 1501 1502 1503 1502 1503 1505 1506 1507 1509 1511 1512 1514 1515 1516 1517 1518 1520 1522 1524 1525 1527 1528 1529 1530 1531 1531 1532 1532 1532 1532 1532 1531 1531 1530 1530 1530 1530 1529 1529 1528
1401 1399 1400 1403 1406 1408 1411 1413 1415 1418 1420 1424 1428 1432 1435 1437 1440 1442 1444 1447 1451 1454 1456 1458 1459 1462 1466 1467 1465 1466 1467 1468 1471 1476 1481 1483 1485 1487 1490 1492 1494 1495 1495 1497 1498 1498 1500 1500 1500 1501 1503 1504 1505 1507 1508 1510 1511 1513 1514 1515 1517 1518 1520 1522 1523 1524 1526 1527 1528 1529 1530 1530 1531 1530 1530 1530 1530 1529 1529 1529 1529 1528 1528 1527 1526
1395 1394 1396 1399 1401 1404 1407 1408 1411 1413 1416 1419 1423 1427 1429 1432 1434 1437 1440 1443 1447 1449 1451 1453 1455 1457 1461 1462 1461 1461 1463 1465 1469 1474 1477 1480 1482 1484 1487 1489 1491 1492 1493 1494 1495 1496 1497 1498 1497 1499 1500 1501 1503 1504 1506 1508 1509 1511 1512 1514 1515 1516 1518 1519 1521 1522 1524 1525 1526 1527 1528 1528 1529 1529 1528 1527 1527 1527 1527 1527 1527 1526 1526 1525 1524
1390 1390 1392 1394 1397 1399 1402 1404 1407 1409 1412 1415 1418 1421 1424 1427 1429 1432 1435 1438 1442 1444 1446 1448 1451 1453 1456 1457 1457 1457 1458 1462 1466 1470 1473 1476 1478 1481 1484 1486 1487 1489 1490 1491 1493 1493 1494 1495 1495 1496 1498 1499 1501 1502 1504 1506 1507 1509 1510 1512 1513 1514 1515 1517 1519 1520 1522 1523 1523 1524 1525 1525 1525 1526 1525 1525 1526 1525 1525 1525 1525 1524 1523 1523 1522
1384 1386 1388 1390 1392 1394 1397 1399 1402 1405 1407 1409 1412 1416 1419 1421 1424 1426 1429 1434 1438 1440 1442 1444 1446 1448 1451 1452 1452 1452 1454 1458 1463 1467 1470 1472 1475 1478 1481 1483 1484 1486 1487 1488 1490 1491 1491 1492 1493 1494 1495 1497 1499 1501 1503 1504 1505 1507 1508 1510 1511 1512 1513 1514 1516 1518 1519 1520 1520 1521 1521 1522 1523 1524 1524 1524 1524 1523 1523 1523 1523 1523 1523 1522 1522
1380 1381 1383 1385 1387 1389 1392 1394 1397 1399 1401 1404 1406 1410 1413 1416 1419 1421 1424 1429 1432 1434 1437 1440 1442 1443 1446 1447 1447 1447 1450 1454 1459 1463 1465 1468 1471 1474 1477 1479 1480 1482 1484 1485 1487 1488 1488 1489 1491 1492 1493 1494 1497 1499 1501 1502 1503 1504 1506 1508 1509 1510 1511 1512 1514 1516 1517 1518 1519 1519 1520 1520 1521 1522 1522 1522 1522 1522 1522 1522 1522 1523 1522 1522 1521
1376 1377 1379 1380 1382 1385 1387 1389 1391 1393 1395 1398 1401 1405 1408 1411 1413 1416 1419 1422 1425 1429 1433 1436 1437 1439 1441 1442 1443 1443 1446 1450 1455 1459 1462 1464 1467 1470 1473 1474 1476 1479 1481 1483 1484 1485 1486 1487 1489 1490 1491 1491 1494 1497 1498 1499 1501 1502 1503 1505 1506 1508 1509 1510 1512 1514 1515 1516 1517 1518 1518 1519 1520 1520 1520 1520 1521 1521 1521 1521 1521 1521 1521 1521 1520
1372 1374 1376 1377 1378 1380 1382 1384 1386 1388 1390 1393 1397 1400 1404 1406 1407 1410 1414 1418 1421 1425 1429 1431 1433 1435 1437 1439 1439 1440 1442 1447 1451 1455 1458 1461 1463 1467 1469 1470 1472 1475 1478 1480 1482 1484 1484 1485 1487 1489 1489 1489 1492 1494 1496 1497 1499 1500 1502 1503 1504 1506 1507 1508 1510 1512 1513 1514 1515 1516 1517 1517 1518 1518 1518 1519 1519 1519 1519 1519 1519 1519 1519 1519 1519
1369 1372 1373 1374 1375 1376 1378 1381 1383 1384 1386 1390 1393 1396 1398 1401 1403 1407 1411 1415 1418 1422 1425 1427 1430 1432 1434 1435 1436 1437 1439 1443 1447 1451 1455 1457 1460 1463 1465 1466 1469 1472 1475 1477 1479 1481 1482 1482 1483 1486 1487 1487 1490 1493 1494 1496 1498 1499 1501 1502 1503 1504 1506 1507 1508 1510 1511 1512 1513 1514 1515 1515 1516 1516 1516 1517 1517 1517 1517 1517 1517 1518 1518 1518 1518
1365 1368 1369 1369 1371 1373 1375 1378 1380 1382 1384 1386 1389 1391 1393 1396 1400 1403 1408 1411 1415 1418 1420 1423 1426 1429 1431 1432 1432 1433 1436 1439 1444 1448 1451 1454 1457 1459 1460 1463 1466 1469 1472 1474 1476 1477 1478 1478 1479 1482 1484 1486 1489 1491 1493 1495 1497 1498 1499 1500 1502 1503 1504 1505 1507 1508 1509 1510 1511 1512 1513 1513 1514 1514 1514 1515 1515 1515 1515 1515 1516 1516 1516 1516 1516
1360 1361 1363 1364 1366 1369 1372 1374 1377 1379 1381 1382 1384 1386 1390 1394 1397 1400 1405 1408 1410 1413 1416 1419 1422 1425 1427 1428 1428 1429 1432 1435 1440 1444 1447 1450 1453 1455 1456 1459 1463 1466 1468 1470 1471 1473 1475 1475 1476 1479 1482 1485 1487 1490 1492 1494 1496 1496 1497 1498 1499 1501 1502 1504 1505 1506 1507 1508 1509 1510 1511 1511 1512 1513 1513 1514 1514 1513 1513 1513 1513 1514 1514 1514 1514
1355 1356 1357 1359 1361 1364 1367 1370 1372 1374 1376 1377 1379 1383 1387 1391 1394 1398 1401 1404 1406 1408 1412 1414 1417 1420 1422 1423 1425 1426 1427 1431 1436 1440 1443 1446 1449 1451 1453 1457 1460 1462 1465 1466 1468 1471 1473 1473 1474 1477 1480 1482 1485 1488 1491 1492 1494 1494 1494 1496 1497 1499 1501 1503 1504 1504 1505 1506 1507 1508 1509 1510 1511 1512 1512 1513 1513 1513 1513 1513 1513 1513 1512 1512 1513
1351 1352 1352 1355 1357 1359 1362 1365 1367 1368 1371 1374 1377 1381 1385 1388 1391 1394 1397 1399 1401 1404 1407 1409 1411 1414 1417 1419 1421 1423 1423 1426 1431 1436 1439 1442 1446 1448 1451 1454 1457 1460 1462 1464 1467 1469 1470 1470 1472 1476 1478 1480 1483 1486 1488 1489 1491 1491 1492 1493 1495 1497 1499 1501 1502 1502 1503 1504 1505 1506 1508 1509 1510 1511 1512 1512 1513 1513 1513 1513 1513 1513 1512 1512 1512
1348 1348 1348 1350 1352 1354 1358 1361 1362 1364 1367 1371 1375 1378 1382 1385 1387 1390 1393 1395 1397 1399 1402 1404 1406 1409 1412 1414 1417 1419 1420 1422 1427 1432 1436 1440 1444 1446 1448 1451 1454 1457 1460 1462 1465 1467 1468 1469 1471 1474 1476 1478 1481 1483 1484 1486 1488 1489 1490 1491 1493 1495 1497 1498 1499 1500 1501 1502 1503 1504 1505 1507 1508 1509 1510 1511 1511 1512 1512 1512 1512 1511 1511 1510 1510
1345 1345 1345 1346 1348 1350 1353 1356 1358 1361 1363 1367 1372 1375 1378 1381 1383 1386 1389 1391 1393 1395 1397 1399 1402 1405 1409 1411 1413 1416 1417 1418 1423 1429 1433 1437 1441 1443 1446 1448 1451 1454 1457 1459 1462 1464 1466 1467 1469 1472 1474 1476 1478 1480 1481 1484 1485 1486 1488 1489 1491 1492 1494 1495 1497 1498 1499 1500 1501 1502 1503 1505 1506 1507 1508 1509 1509 1510 1510 1510 1510 1510 1509 1509 1508
1344 1343 1342 1343 1344 1346 1348 1351 1354 1357 1360 1364 1369 1372 1375 1377 1379 1381 1384 1386 1388 1390 1392 1394 1397 1401 1404 1407 1409 1411 1412 1413 1418 1425 1429 1432 1436 1439 1441 1444 1447 1450 1453 1456 1459 1462 1463 1465 1468 1471 1473 1475 1477 1478 1480 1481 1482 1483 1485 1486 1488 1490 1491 1493 1495 1496 1497 1498 1500 1501 1502 1503 1504 1505 1506 1506 1507 1507 1508 1508 1508 1508 1508 1508 1507
1343 1342 1341 1340 1341 1342 1344 1347 1351 1354 1357 1361 1364 1367 1369 1372 1375 1377 1379 1381 1383 1385 1386 1389 1393 1396 1399 1402 1405 1406 1407 1408 1413 1420 1424 1426 1430 1434 1437 1439 1442 1445 1449 1452 1456 1458 1460 1463 1466 1468 1470 1472 1473 1475 1476 1478 1479 1481 1482 1484 1485 1487 1489 1491 1492 1493 1495 1496 1497 1498 1499 1500 1502 1503 1504 1505 1505 1505 1506 1506 1506 1506 1506 1506 1506
1341 1340 1339 1338 1339 1340 1342 1344 1347 1351 1354 1358 1361 1363 1366 1368 1371 1374 1376 1379 1380 1381 1382 1386 1389 1393 1396 1398 1399 1401 1403 1405 1410 1417 1420 1422 1425 1428 1431 1434 1438 1442 1445 1448 1451 1454 1457 1460 1463 1464 1466 1468 1469 1470 1472 1474 1476 1478 1479 1481 1483 1484 1486 1488 1489 1490 1492 1493 1494 1495 1496 1498 1500 1501 1502 1503 1503 1504 1504 1505 1505 1505 1505 1505 1504
1339 1338 1337 1338 1338 1339 1341 1342 1344 1347 1350 1353 1357 1360 1363 1366 1370 1372 1374 1376 1378 1380 1382 1385 1388 1391 1394 1395 1396 1398 1401 1405 1410 1414 1417 1419 1421 1424 1426 1430 1434 1438 1442 1445 1447 1450 1453 1456 1458 1460 1462 1464 1465 1467 1469 1471 1473 1474 1476 1478 1480 1482 1483 1485 1486 1488 1489 1490 1491 1492 1494 1496 1497 1499 1500 1501 1501 1502 1502 1503 1503 1503 1503 1503 1502
1340 1338 1337 1338 1339 1339 1339 1340 1342 1344 1346 1349 1353 1356 1358 1363 1366 1369 1371 1373 1376 1378 1382 1384 1387 1390 1392 1394 1395 1397 1401 1404 1408 1411 1413 1415 1417 1420 1423 1426 1430 1434 1438 1440 1442 1445 1448 1451 1454 1457 1459 1461 1462 1464 1466 1468 1470 1472 1474 1475 1477 1479 1481 1482 1484 1486 1487 1487 1488 1490 1492 1493 1495 1496 1497 1498 1499 1500 1500 1501 1501 1501 1501 1501 1501
1338 1338 1338 1338 1339 1338 1338 1338 1339 1341 1343 1346 1349 1352 1355 1359 1362 1365 1368 1371 1374 1376 1379 1381 1384 1387 1390 1392 1394 1396 1398 1402 1405 1408 1410 1412 1414 1416 1419 1423 1427 1431 1435 1437 1439 1442 1445 1448 1451 1454 1456 1458 1460 1462 1464 1465 1467 1469 1472 1473 1474 1476 1478 1480 1482 1483 1484 1484 1485 1486 1488 1490 1492 1494 1495 1496 1497 1498 1498 1499 1499 1499 1499 1499 1499
1336 1337 1339 1339 1339 1338 1337 1336 1336 1337 1339 1342 1345 1348 1352 1355 1358 1362 1365 1368 1371 1374 1376 1378 1381 1384 1387 1390 1392 1394 1397 1400 1402 1405 1407 1409 1410 1413 1416 1420 1424 1428 1431 1435 1437 1440 1442 1445 1448 1451 1453 1456 1457 1459 1461 1463 1466 1468 1470 1471 1472 1473 1475 1477 1479 1481 1482 1483 1483 1484 1485 1487 1489 1491 1492 1493 1494 1495 1495 1496 1496 1497 1497 1497 1497
1335 1337 1339 1340 1339 1339 1338 1337 1336 1337 1339 1341 1343 1346 1349 1352 1356 1359 1362 1365 1367 1370 1372 1375 1378 1381 1384 1387 1390 1393 1396 1398 1399 1401 1404 1405 1407 1410 1414 1418 1422 1425 1428 1431 1434 1437 1439 1443 1446 1448 1451 1453 1455 1457 1459 1461 1464 1466 1468 1469 1471 1472 1473 1475 1477 1478 1479 1480 1481 1482 1482 1484 1486 1488 1489 1490 1491 1492 1492 1493 1493 1494 1495 1495 1495
1335 1336 1338 1339 1339 1339 1338 1337 1337 1338 1340 1341 1343 1345 1347 1350 1353 1356 1359 1361 1363 1366 1369 1372 1375 1379 1382 1385 1387 1390 1394 1396 1397 1398 1400 1402 1405 1407 1411 1414 1417 1421 1425 1428 1431 1434 1437 1440 1443 1446 1448 1451 1453 1455 1456 1459 1461 1464 1466 1468 1469 1471 1472 1473 1475 1476 1477 1478 1479 1479 1480 1482 1483 1485 1486 1487 1488 1489 1489 1490 1491 1492 1493 1494 1493
1336 1337 1337 1337 1337 1338 1338 1337 1337 1338 1340 1341 1342 1344 1347 1349 1352 1355 1357 1359 1361 1364 1366 1369 1373 1378 1380 1382 1384 1387 1390 1393 1395 1396 1398 1400 1402 1404 1406 1408 1411 1414 1418 1422 1426 1431 1434 1438 1441 1443 1446 1448 1450 1452 1454 1457 1459 1461 1464 1465 1467 1469 1470 1471 1472 1474 1475 1476 1477 1477 1478 1479 1481 1482 1483 1484 1485 1486 1487 1488 1489 1490 1491 1491 1491
1337 1337 1337 1336 1335 1337 1337 1337 1337 1338 1339 1340 1341 1343 1345 1347 1350 1353 1355 1357 1359 1361 1362 1365 1370 1374 1376 1377 1380 1384 1387 1390 1392 1394 1396 1398 1400 1401 1403 1406 1408 1410 1413 1417 1422 1427 1431 1435 1438 1441 1443 1445 1447 1450 1452 1455 1457 1459 1461 1463 1464 1466 1468 1469 1470 1471 1472 1473 1474 1475 1476 1477 1478 1479 1480 1481 1482 1483 1484 1486 1487 1488 1488 1488 1489
1336 1336 1335 1334 1334 1335 1337 1337 1337 1337 1338 1338 1339 1341 1343 1345 1347 1350 1352 1354 1356 1357 1359 1362 1367 1370 1371 1372 1376 1380 1383 1386 1388 1391 1393 1394 1396 1398 1401 1404 1406 1408 1411 1414 1418 1422 1427 1431 1434 1436 1439 1441 1443 1447 1450 1452 1455 1457 1459 1460 1462 1464 1465 1466 1468 1469 1470 1470 1471 1473 1474 1475 1475 1476 1477 1478 1479 1481 1482 1483 1484 1485 1485 1486 1486
1335 1335 1335 1335 1335 1335 1337 1337 1337 1337 1336 1337 1338 1339 1341 1343 1345 1347 1349 1351 1353 1354 1356 1360 1364 1366 1367 1368 1371 1374 1378 1381 1383 1386 1388 1390 1393 1395 1398 1401 1404 1407 1409 1412 1416 1421 1425 1428 1429 1431 1435 1438 1441 1445 1448 1450 1453 1455 1457 1458 1460 1461 1462 1464 1465 1466 1467 1468 1469 1470 1471 1471 1472 1473 1475 1476 1477 1478 1479 1480 1481 1482 1483 1484 1484
1335 1334 1334 1334 1335 1335 1336 1336 1336 1335 1335 1336 1337 1338 1339 1341 1343 1345 1346 1348 1350 1352 1354 1357 1360 1361 1363 1365 1368 1370 1373 1376 1379 1382 1385 1388 1391 1393 1395 1398 1401 1404 1407 1411 1416 1419 1422 1424 1426 1428 1432 1436 1440 1443 1446 1449 1451 1453 1454 1456 1457 1458 1460 1461 1462 1463 1464 1465 1466 1466 1467 1468 1469 1471 1472 1473 1474 1475 1476 1477 1478 1479 1480 1481 1482
1334 1334 1333 1333 1333 1333 1334 1334 1334 1334 1334 1335 1336 1337 1338 1340 1341 1343 1345 1346 1348 1350 1353 1355 1356 1358 1360 1363 1366 1368 1370 1373 1376 1379 1382 1385 1388 1390 1392 1394 1398 1401 1405 1409 1413 1416 1418 1421 1423 1426 1430 1434 1438 1441 1444 1446 1448 1451 1453 1454 1455 1456 1457 1458 1459 1460 1461 1462 1462 1463 1464 1466 1467 1469 1470 1471 1472 1473 1474 1475 1476 1476 1477 1477 1478
1335 1334 1333 1333 1333 1332 1332 1332 1333 1333 1333 1334 1335 1336 1337 1339 1340 1341 1343 1344 1346 1349 1351 1352 1354 1355 1358 1361 1364 1366 1368 1371 1373 1375 1378 1381 1384 1387 1389 1392 1396 1400 1403 1407 1410 1413 1416 1418 1421 1425 1428 1432 1435 1438 1440 1441 1444 1448 1450 1451 1452 1453 1454 1455 1456 1457 1458 1459 1459 1460 1462 1464 1465 1466 1468 1469 1470 1471 1472 1473 1473 1474 1475 1476 1476
1338 1336 1335 1334 1333 1332 1332 1332 1332 1332 1333 1334 1334 1335 1337 1338 1339 1340 1342 1343 1345 1347 1348 1350 1352 1354 1356 1359 1362 1363 1366 1369 1371 1373 1374 1378 1382 1385 1388 1391 1395 1398 1402 1406 1409 1411 1414 1416 1420 1423 1427 1429 1431 1434 1437 1438 1440 1444 1446 1447 1449 1450 1451 1452 1453 1454 1455 1456 1456 1457 1459 1461 1463 1464 1465 1466 1467 1468 1469 1470 1471 1472 1473 1474 1475
1340 1339 1337 1336 1335 1333 1333 1333 1333 1333 1333 1334 1335 1336 1336 1337 1338 1340 1341 1342 1344 1345 1346 1348 1350 1352 1355 1358 1360 1362 1365 1367 1371 1373 1375 1378 1381 1385 1387 1390 1394 1397 1401 1404 1406 1408 1411 1415 1418 1422 1426 1427 1428 1431 1434 1436 1438 1441 1443 1444 1445 1446 1447 1448 1450 1450 1451 1452 1454 1455 1456 1458 1459 1461 1462 1463 1464 1465 1466 1467 1468 1469 1470 1471 1472
1342 1341 1340 1338 1337 1336 1335 1335 1334 1334 1335 1335 1336 1336 1337 1338 1339 1340 1341 1342 1343 1344 1345 1347 1349 1352 1354 1357 1359 1361 1363 1366 1369 1373 1375 1377 1380 1382 1385 1389 1393 1397 1400 1402 1404 1407 1411 1414 1417 1421 1424 1425 1426 1429 1433 1435 1437 1439 1440 1441 1442 1443 1444 1445 1447 1448 1449 1449 1451 1452 1453 1454 1456 1458 1459 1460 1461 1462 1463 1464 1465 1466 1467 1468 1470
1344 1343 1342 1341 1340 1339 1338 1337 1337 1336 1337 1337 1337 1338 1338 1339 1340 1340 1341 1342 1343 1344 1346 1347 1349 1352 1354 1356 1358 1361 1363 1365 1368 1371 1374 1376 1379 1382 1385 1389 1392 1396 1400 1403 1405 1407 1410 1413 1416 1419 1421 1422 1425 1428 1431 1433 1435 1436 1437 1438 1439 1440 1441 1443 1445 1446 1446 1447 1448 1450 1451 1451 1452 1454 1456 1457 1458 1459 1460 1461 1462 1463 1464 1465 1467
1346 1346 1345 1344 1343 1342 1341 1340 1340 1340 1340 1341 1341 1341 1341 1341 1341 1342 1343 1343 1344 1345 1347 1348 1350 1352 1354 1357 1359 1361 1364 1367 1369 1372 1375 1378 1381 1385 1388 1390 1394 1397 1400 1402 1403 1405 1408 1410 1413 1415 1417 1420 1424 1427 1429 1431 1432 1434 1435 1436 1437 1438 1440 1441 1442 1443 1444 1445 1446 1448 1449 1449 1450 1451 1453 1454 1456 1457 1457 1458 1459 1460 1461 1462 1464
1349 1348 1347 1347 1347 1346 1346 1345 1344 1344 1344 1344 1344 1344 1344 1344 1344 1345 1345 1345 1346 1347 1349 1350 1351 1354 1356 1358 1361 1363 1366 1368 1371 1374 1377 1380 1383 1386 1389 1391 1394 1396 1399 1400 1401 1403 1406 1409 1411 1413 1416 1419 1422 1424 1426 1428 1430 1432 1433 1434 1436 1437 1438 1439 1440 1441 1442 1443 1444 1446 1447 1448 1449 1450 1450 1451 1453 1454 1455 1456 1456 1457 1459 1460 1461
1353 1351 1350 1350 1350 1350 1350 1349 1349 1348 1348 1348 1348 1348 1348 1348 1348 1348 1349 1349 1349 1350 1351 1352 1354 1356 1358 1360 1363 1365 1368 1370 1372 1375 1378 1380 1383 1386 1389 1391 1393 1395 1396 1398 1400 1403 1405 1408 1410 1412 1415 1418 1420 1422 1424 1426 1428 1429 1431 1433 1434 1435 1437 1438 1440 1440 1441 1441 1443 1444 1445 1446 1448 1449 1449 1450 1450 1452 1453 1454 1455 1456 1456 1458 1459
1355 1354 1354 1353 1353 1353 1352 1352 1352 1352 1352 1352 1352 1351 1351 1351 1351 1351 1352 1352 1352 1353 1354 1355 1357 1358 1360 1362 1364 1366 1368 1371 1373 1375 1378 1380 1383 1386 1389 1392 1394 1395 1396 1398 1400 1403 1405 1407 1409 1412 1414 1416 1418 1420 1422 1424 1425 1427 1429 1431 1432 1434 1435 1437 1438 1439 1439 1440 1441 1442 1443 1445 1446 1447 1448 1449 1449 1449 1450 1452 1453 1454 1455 1456 1457
1356 1355 1355 1355 1355 1355 1355 1355 1355 1355 1356 1356 1355 1355 1355 1355 1354 1354 1354 1354 1355 1355 1357 1358 1359 1361 1362 1364 1366 1368 1370 1372 1374 1376 1379 1381 1383 1386 1389 1392 1394 1395 1396 1398 1400 1402 1404 1406 1408 1410 1412 1414 1416 1418 1420 1421 1423 1425 1426 1428 1430 1432 1433 1435 1436 1437 1438 1439 1440 1440 1441 1443 1444 1444 1446 1447 1448 1448 1449 1449 1450 1452 1453 1454 1455